Flag for Russia Weather past 2 weeks in Saratov, Russia

Now
77 °F

Partly sunny.


Feels Like: 79 °F
Forecast: 63 / 86 °F
Wind: 10 mph from North

Location: Saratov / Tsentralny

Current Time: Aug 20, 2014 at 1:27:13 PM

Latest Report: Aug 20, 2014 at 1:00 PM


Visibility: N/A

Pressure: 29.92 "Hg

Humidity: 65%

Dew point: 64 °F

Location of SaratovLocation

Historic Weather in Saratov — Graph

°F

Saratov temperature yesterday

Maximum temperature yesterday: 68 °F (at 6:00 AM)
Minimum temperature yesterday: 63 °F (at 1:00 AM)
Average temperature yesterday: 65 °F

Past Weeks' High & Low Weather Summary

 TemperatureHumidityPressure
High99 °F (Aug 15, 2:00 PM)100% (Aug 16, 2:30 AM)29.98 "Hg (Aug 16, 2:30 AM)
Low59 °F (Aug 6, 6:00 AM)17% (Aug 16, 3:00 PM)29.53 "Hg (Aug 10, 11:30 AM)
Average77 °F55%29.83 "Hg
* Reported Aug 5 12:00 Noon — Aug 20 12:30 PM, Saratov, Weather by CustomWeather, © 2014

Note: Actual official high and low records may vary slightly from our data, if they occured in-between our weather recording intervals... More about our weather records

Advertising

Saratov weather history for previous 24 hours

 ConditionsComfort  
Time TempWeatherWind HumidityBarometerVisibility
12:30 PM
Aug 20
75 °FPartly sunny.10 mph69%29.92 "HgN/A
12:00 PM75 °FPartly sunny.10 mph69%29.92 "HgN/A
11:30 AM73 °FScattered clouds.8 mph74%29.92 "HgN/A
11:00 AM73 °FScattered clouds.8 mph74%29.92 "HgN/A
10:30 AM72 °FScattered clouds.8 mph83%29.89 "HgN/A
10:00 AM72 °FScattered clouds.10 mph83%29.89 "HgN/A
9:30 AM68 °FScattered clouds.8 mph83%29.89 "HgN/A
9:00 AM68 °FScattered clouds.8 mph83%29.89 "HgN/A
8:30 AM64 °FBroken clouds.8 mph94%29.89 "HgN/A
8:00 AM64 °FBroken clouds.10 mph94%29.89 "HgN/A
7:30 AM64 °FBroken clouds.10 mph94%29.89 "HgN/A
7:00 AM64 °FBroken clouds.10 mph94%29.89 "HgN/A
6:30 AM63 °FPartly cloudy.10 mph100%29.89 "HgN/A
6:00 AM63 °FPartly cloudy.10 mph100%29.89 "HgN/A
5:30 AM63 °FPartly cloudy.10 mph100%29.89 "HgN/A
5:00 AM63 °FMostly cloudy.8 mph100%29.89 "HgN/A
4:30 AM64 °FMostly cloudy.10 mph94%29.89 "HgN/A
4:00 AM64 °FMostly cloudy.8 mph94%29.89 "HgN/A
3:30 AM64 °FMostly cloudy.8 mph94%29.89 "HgN/A
3:00 AM64 °FMostly cloudy.3 mph94%29.89 "HgN/A
2:30 AM66 °FMostly cloudy.3 mph83%29.89 "HgN/A
2:00 AM66 °FMostly cloudy.3 mph83%29.89 "HgN/A
1:30 AM66 °FMostly cloudy.3 mph83%29.89 "HgN/A
1:00 AM66 °FThundershowers. Mostly cloudy.3 mph83%29.89 "HgN/A
12:30 AM66 °FThundershowers. Mostly cloudy.3 mph88%29.89 "HgN/A
12:00 AM66 °FThundershowers. Mostly cloudy.3 mph88%29.89 "HgN/A
11:30 PM
Aug 19
66 °FThundershowers. Mostly cloudy.3 mph88%29.89 "HgN/A
11:00 PM66 °FThundershowers. Mostly cloudy.3 mph88%29.89 "HgN/A
10:30 PM66 °FThundershowers. Mostly cloudy.3 mph83%29.89 "HgN/A
10:00 PM66 °FThundershowers. Mostly cloudy.3 mph83%29.89 "HgN/A
9:30 PM64 °FThundershowers. Overcast.10 mph94%29.89 "HgN/A
9:00 PM64 °FThundershowers. Mostly cloudy.8 mph94%29.89 "HgN/A
8:30 PM66 °FThundershowers. Mostly cloudy.6 mph94%29.89 "HgN/A
8:00 PM66 °FThundershowers. Mostly cloudy.8 mph94%29.89 "HgN/A
7:30 PM64 °FThundershowers. Mostly cloudy.3 mph100%29.86 "HgN/A
7:00 PM64 °FThundershowers. Mostly cloudy.3 mph100%29.86 "HgN/A
6:30 PM64 °FThunderstorms. Mostly cloudy.6 mph100%29.89 "Hg3 mi
6:00 PM64 °FThundershowers. Mostly cloudy.3 mph100%29.89 "HgN/A
5:30 PM66 °FThundershowers. Mostly cloudy.8 mph94%29.89 "HgN/A
5:00 PM66 °FSprinkles. Mostly cloudy.10 mph94%29.89 "HgN/A
4:30 PM66 °FMostly cloudy.13 mph94%29.89 "HgN/A
4:00 PM66 °FSprinkles. Mostly cloudy.8 mph94%29.89 "HgN/A
3:30 PM64 °FMostly cloudy.8 mph94%29.89 "HgN/A
3:00 PM64 °FMostly cloudy.6 mph94%29.89 "HgN/A
2:30 PM64 °FSprinkles. Cloudy.8 mph94%29.89 "HgN/A
2:00 PM64 °FSprinkles. Cloudy.8 mph94%29.89 "HgN/A
1:30 PM64 °FThundershowers. Cloudy.8 mph94%29.92 "Hg4 mi
1:00 PM64 °FThundershowers. Cloudy.8 mph94%29.92 "Hg4 mi
Weather by CustomWeather, © 2014

See weather overviewHow to use our weather pages